Wind_Speed
8 10 12 14 15 15 16 17 17 17 17 17 17 17 17 17 17 17 17 17 18 18 18 19 20 20 21 20 19 19 19 19 19 18 18 17 17 17 18 17 17 17 18 19 20 21 20 19 18 18 18 18 17 17 17 18 18 18 18 19 20 20 19
5 6 8 10 11 12 13 14 14 15 15 16 17 17 17 17 17 17 17 17 17 17 18 19 19 20 21 21 20 19 17 17 17 18 18 17 18 18 18 17 17 17 18 20 21 20 19 19 19 18 18 18 17 17 17 17 18 18 19 20 20 20 20
7 7 7 7 8 8 9 10 12 13 14 15 16 17 18 18 18 18 17 16 16 16 16 18 18 19 20 20 19 18 16 15 14 15 17 17 18 18 18 17 16 17 18 20 20 20 19 20 20 19 19 19 19 18 18 18 19 19 20 20 21 21 21
7 8 9 9 9 8 8 8 9 10 12 13 15 16 17 18 18 18 18 17 16 16 16 16 17 18 19 19 19 18 17 16 15 15 16 17 18 17 17 16 16 17 18 19 20 21 21 21 21 21 20 20 20 19 19 20 20 20 21 21 22 22 22
5 6 7 8 9 10 10 10 10 11 11 12 14 15 16 16 17 17 17 17 16 16 16 16 16 17 18 18 18 18 18 17 17 16 16 17 17 17 17 17 17 17 18 19 20 21 21 21 22 21 20 20 21 21 20 21 21 21 21 22 23 23 23
5 5 6 7 8 9 11 12 13 13 14 14 14 15 15 16 16 16 15 15 15 16 16 17 17 17 17 18 18 18 18 17 17 16 16 17 17 18 18 18 19 19 19 19 20 20 20 21 21 20 19 20 21 22 21 22 22 22 22 23 23 24 24
6 6 6 7 7 8 10 13 15 16 17 17 16 16 16 16 17 16 16 16 16 16 17 17 18 18 19 19 18 18 18 18 18 18 18 18 18 18 18 19 19 20 20 20 20 20 20 21 21 21 20 21 22 22 22 22 23 23 24 24 24 25 25
8 8 8 8 9 9 10 12 14 16 17 18 18 17 17 18 18 17 18 18 18 18 18 18 19 19 20 20 20 20 20 20 20 20 20 20 20 19 19 20 20 20 20 21 21 21 22 22 22 22 22 23 23 23 23 24 25 25 25 25 25 26 26
9 9 10 10 10 10 11 13 14 15 15 16 16 17 17 18 19 19 19 20 20 20 20 21 21 21 22 22 22 23 22 22 23 22 22 22 22 21 21 22 22 22 22 23 23 24 24 24 24 25 25 25 25 25 25 26 26 27 27 26 26 27 27
10 10 11 11 11 12 14 15 15 14 13 13 14 15 17 18 19 20 21 21 21 22 22 23 24 24 24 25 25 25 25 24 25 25 25 24 24 24 24 24 24 24 25 25 26 27 27 27 28 28 28 28 27 27 28 29 29 29 28 28 28 28 29
10 11 12 13 13 14 15 14 12 13 14 15 14 15 16 17 18 20 21 22 22 23 24 25 26 26 27 27 28 28 27 27 27 27 27 26 26 26 26 27 27 27 27 28 29 29 29 30 31 31 31 31 30 30 31 31 32 33 32 31 31 31 32
10 11 12 14 15 15 14 12 11 14 16 17 16 15 16 17 18 20 21 22 23 24 25 25 26 27 28 29 30 30 29 29 29 29 28 28 28 28 29 29 30 29 30 30 30 31 31 32 33 33 33 32 32 32 32 33 34 36 36 35 35 35 35
10 11 12 14 15 14 12 12 12 15 16 16 18 18 18 18 19 20 21 22 23 24 24 25 26 27 28 30 30 31 31 30 30 30 30 29 30 31 31 31 32 32 32 32 32 33 33 34 34 35 35 35 34 34 35 34 35 37 38 38 38 38 38
11 12 14 16 15 11 11 12 14 15 16 17 18 20 20 20 20 20 21 21 22 23 24 25 26 27 27 29 30 30 30 31 31 31 30 30 31 31 31 32 32 32 32 32 33 34 34 34 34 35 36 36 37 37 37 37 36 37 39 40 40 41 41
12 13 16 17 13 10 11 14 14 16 17 18 19 21 22 23 23 22 22 22 23 23 25 26 26 27 27 27 28 29 29 30 29 29 28 29 29 29 29 29 31 32 32 32 33 34 34 34 34 35 36 36 37 37 37 37 37 38 39 41 42 42 43
12 14 17 17 13 11 13 15 15 17 19 20 20 21 23 23 24 24 24 23 24 25 25 26 26 26 26 27 28 29 29 29 28 27 27 28 28 28 28 27 29 31 32 33 34 34 33 33 33 33 34 35 35 36 36 37 37 38 38 39 41 42 43
12 14 17 16 13 13 14 15 17 18 20 21 22 22 23 23 24 24 24 25 26 26 27 27 27 26 26 27 28 30 30 29 28 28 28 29 31 31 30 29 30 30 31 32 34 34 33 32 31 31 33 34 35 36 37 37 38 38 38 38 39 40 42
13 15 16 15 14 13 14 16 17 19 20 22 22 23 23 23 23 23 23 24 26 27 28 29 28 28 28 28 29 29 29 29 29 30 30 31 33 33 33 32 32 31 32 32 32 32 32 31 30 31 33 34 35 36 37 37 38 39 39 39 38 38 40
15 16 17 16 14 14 14 16 17 19 21 22 23 23 23 23 22 22 22 24 25 27 29 29 29 29 29 28 27 27 27 28 30 31 31 31 32 33 34 33 33 33 33 32 31 30 30 30 32 33 33 33 34 35 35 36 37 38 38 39 39 38 38
17 17 17 17 16 15 15 15 17 18 20 22 23 24 23 22 20 20 21 23 25 27 28 28 28 30 30 29 27 26 26 28 31 32 31 31 32 33 33 32 32 32 32 31 30 29 30 31 32 32 31 31 32 33 34 35 35 36 37 37 38 38 38
19 19 19 18 17 17 16 16 16 17 20 22 23 23 22 22 19 18 19 21 23 26 27 26 26 27 28 28 28 27 27 28 30 31 31 31 32 33 32 31 30 30 31 31 31 31 32 33 32 31 30 31 32 33 34 34 35 35 35 35 36 36 37
21 21 21 20 19 18 18 17 16 16 18 21 22 22 20 19 19 18 18 19 21 24 26 27 26 25 25 26 28 29 28 29 29 29 29 30 31 32 33 32 31 30 30 31 31 32 33 33 32 32 32 32 32 33 34 34 34 35 35 35 35 35 35
23 23 23 22 21 20 19 19 18 17 17 19 20 21 19 17 17 17 17 17 18 20 24 27 27 25 24 25 27 28 29 29 29 28 29 30 31 32 33 33 32 31 30 31 32 32 32 32 32 33 33 33 33 35 35 35 35 35 35 35 34 34 35
24 24 25 25 24 22 21 20 19 18 18 18 18 19 18 17 16 17 17 17 17 17 20 24 27 26 25 25 26 28 29 29 29 29 29 30 31 31 32 32 32 32 32 33 33 32 32 32 33 33 33 33 34 35 36 35 35 35 34 34 34 34 34
25 26 26 27 26 25 23 21 21 20 18 17 17 18 18 17 15 16 17 17 17 17 19 22 26 27 28 28 27 28 29 30 30 30 30 30 30 31 31 31 32 32 34 34 33 32 33 34 34 34 34 34 34 35 35 34 34 33 33 32 33 34 34
27 27 28 28 28 27 25 23 22 22 20 18 16 17 18 18 17 16 16 17 17 18 19 22 24 26 27 28 28 29 30 31 30 30 29 29 30 30 30 31 32 33 35 35 34 34 35 35 35 34 34 33 34 34 34 34 33 32 32 33 34 35 35
30 30 29 29 29 28 27 25 24 24 22 20 17 16 18 19 18 17 16 16 16 17 19 22 23 24 25 26 27 29 31 31 30 30 30 29 29 30 31 32 33 35 35 36 36 36 36 36 35 34 34 34 34 33 33 33 33 32 33 34 36 37 37
32 32 32 31 30 29 28 27 26 25 25 22 19 18 18 19 19 19 18 17 16 16 18 20 22 23 24 25 26 28 30 30 30 30 31 30 30 31 32 33 34 36 37 37 37 37 38 38 37 36 35 35 34 33 33 34 33 33 34 36 37 37 36
32 34 34 32 31 30 29 28 27 27 26 24 22 20 20 20 20 20 19 18 17 17 17 17 18 20 22 24 25 27 29 30 30 30 31 31 32 33 33 34 35 36 37 38 39 39 39 39 37 36 36 35 34 33 33 34 34 34 35 37 37 36 35
34 34 35 34 31 30 30 30 29 28 27 26 24 23 22 22 21 21 20 20 19 18 18 17 17 17 18 21 23 25 28 30 31 31 32 33 34 34 34 35 36 37 38 39 40 40 40 39 38 37 37 36 34 33 34 35 34 35 36 36 36 35 35
35 35 34 34 33 33 32 31 30 29 28 27 26 25 24 24 23 22 22 21 20 20 20 19 18 18 17 17 18 21 24 27 29 31 32 34 35 35 36 36 37 37 38 38 39 40 40 38 38 38 37 36 34 34 34 35 35 36 37 36 35 36 35
36 36 35 35 36 36 34 33 32 31 29 28 28 27 26 25 25 24 24 23 22 21 21 21 21 21 21 20 19 18 19 21 24 27 30 33 34 34 35 35 36 37 37 38 38 40 40 38 37 38 37 36 35 34 34 35 36 37 37 36 36 36 36
37 37 37 37 38 38 36 35 33 31 30 29 29 29 27 27 27 26 26 25 24 23 22 23 23 23 23 23 22 22 22 22 23 24 27 30 32 33 33 34 36 37 37 37 37 38 39 37 36 36 36 35 35 35 34 35 37 37 37 36 36 36 36
41 40 40 40 41 40 38 36 34 32 31 31 31 30 29 28 29 28 28 27 26 25 25 24 25 25 25 26 25 25 25 25 26 26 27 28 30 33 35 37 39 39 38 37 37 37 37 35 34 34 35 36 36 35 34 35 37 37 36 36 37 36 35
45 45 45 44 44 42 41 38 36 34 33 33 32 30 29 29 30 30 30 29 29 28 28 27 26 26 27 27 27 27 27 27 28 29 28 28 29 31 34 37 39 39 39 39 38 36 35 34 33 34 35 37 37 35 35 36 36 36 36 36 36 35 34
46 46 47 47 46 44 42 40 38 36 34 33 32 31 31 31 31 32 32 32 32 31 30 29 28 28 28 28 28 28 28 29 29 30 30 29 30 31 33 36 38 39 39 39 38 37 36 35 34 34 37 39 37 36 36 37 36 34 35 35 35 34 33
46 46 47 48 47 45 43 42 40 38 36 34 32 32 32 32 32 33 33 34 33 33 32 30 29 28 29 29 29 29 30 31 31 31 31 30 30 30 32 35 38 40 41 40 39 38 37 36 35 36 38 39 38 36 36 36 34 33 34 34 34 33 32
Wind_Direction
218 221 218 216 215 216 219 221 222 222 223 225 226 226 226 227 228 226 222 217 212 212 216 222 228 230 231 231 232 234 236 238 236 235 234 235 235 234 235 237 239 241 241 242 244 244 243 242 241 241 243 243 242 243 245 246 247 247 247 249 251 253 256
195 210 217 222 223 222 222 225 226 227 227 227 225 224 223 222 221 220 220 219 215 213 215 219 223 226 229 230 231 232 234 236 235 233 233 232 231 230 231 234 237 239 238 238 240 241 242 244 243 241 243 244 243 241 241 243 246 248 249 250 251 251 253
189 192 199 209 217 222 224 227 230 234 235 230 223 220 218 216 215 214 215 217 216 215 217 218 220 223 226 228 228 227 228 228 225 224 225 226 226 227 229 233 237 239 238 236 237 238 240 243 245 245 245 247 247 246 245 245 245 247 249 251 253 254 254
201 201 203 206 210 212 218 224 229 235 239 233 225 221 219 217 215 213 212 212 213 214 216 218 220 222 225 226 226 226 228 229 225 222 221 222 225 226 229 234 239 241 240 238 238 240 241 243 245 245 244 247 250 249 248 248 247 247 249 252 254 256 257
204 212 215 217 218 215 212 214 218 225 232 234 231 228 226 226 225 223 220 217 215 216 217 219 221 223 225 226 227 227 229 230 229 227 224 224 226 227 230 234 237 239 239 239 240 242 243 245 247 247 244 244 247 248 247 248 250 250 251 252 255 257 259
204 212 219 225 227 225 221 218 218 221 224 227 230 232 234 236 238 239 236 231 228 227 225 224 225 227 228 228 229 230 231 232 232 231 229 227 228 228 230 233 235 237 238 240 241 243 245 247 249 251 249 246 246 247 247 248 249 250 251 252 254 256 258
214 217 222 226 230 230 227 225 224 224 225 225 226 228 232 237 240 241 242 241 239 238 236 233 232 232 233 233 234 234 236 237 237 237 235 234 233 233 233 235 237 239 241 243 245 247 248 250 252 253 254 252 250 249 249 249 250 250 251 252 254 256 258
218 220 224 226 229 230 231 232 232 231 231 230 228 228 230 234 238 239 241 243 243 243 242 241 240 239 239 239 239 240 242 243 243 243 243 243 242 241 241 242 243 244 246 248 250 251 252 253 254 255 255 255 255 254 253 253 253 254 254 254 254 257 259
230 228 230 232 233 236 238 237 235 236 238 239 238 237 235 236 238 240 242 243 244 245 245 245 245 245 246 246 245 245 246 248 249 250 250 251 251 251 251 251 251 252 253 254 255 256 257 257 258 258 258 258 259 260 259 258 258 258 260 260 260 260 261
251 251 250 248 244 243 244 244 246 253 258 257 254 251 248 246 244 245 245 245 245 245 246 246 247 248 248 248 248 248 249 251 252 253 254 255 257 258 258 258 258 259 259 261 262 262 263 264 265 265 265 265 265 266 267 267 266 264 264 264 265 265 265
264 267 268 267 262 256 254 258 269 274 269 263 259 256 255 255 253 252 251 250 249 248 247 247 248 249 249 249 249 250 251 252 252 253 254 256 258 259 259 259 259 260 260 261 263 265 266 267 267 268 269 270 271 271 272 274 274 274 272 271 270 270 270
278 276 276 276 273 271 275 282 281 274 268 265 264 262 259 257 255 255 255 254 252 251 251 251 251 252 252 251 252 253 253 253 254 255 256 258 259 260 260 260 260 260 260 260 261 262 263 264 265 266 267 268 268 269 270 271 274 276 276 275 275 274 273
292 289 287 281 278 286 298 295 282 277 276 272 267 265 264 260 257 256 256 257 255 254 254 254 254 254 253 253 253 254 254 254 254 256 257 258 258 259 259 260 261 260 260 260 261 262 262 264 266 267 268 268 268 268 269 268 269 271 272 273 273 273 273
297 294 289 283 286 300 303 290 284 283 282 278 273 268 265 262 260 258 257 257 256 255 254 255 255 256 256 255 255 254 254 254 254 256 257 257 258 259 260 260 261 262 261 261 262 263 264 265 267 268 269 270 270 270 271 270 270 270 271 272 272 272 272
295 294 290 288 292 302 293 287 292 291 287 285 281 274 269 265 261 258 255 254 254 254 254 255 256 257 257 256 256 256 256 256 256 257 258 259 260 262 263 265 265 265 265 265 264 265 267 267 268 269 270 271 272 273 274 274 273 273 273 273 274 274 273
288 289 290 293 300 302 293 293 298 296 294 293 288 281 277 273 269 263 257 252 249 250 252 252 252 253 254 255 257 259 261 261 260 260 261 263 265 266 266 267 269 270 271 270 270 270 271 272 272 274 276 277 278 278 278 277 276 275 274 274 275 275 275
280 282 285 292 302 303 299 300 303 302 301 299 296 291 284 278 274 269 263 256 252 251 251 250 248 248 250 252 254 257 260 262 261 261 262 264 264 264 263 262 266 271 274 274 274 275 276 277 278 279 279 279 280 280 280 280 279 277 277 276 276 276 277
274 277 281 289 296 299 300 302 306 309 309 306 302 298 291 285 279 273 267 262 258 256 254 252 250 248 248 248 251 254 258 261 261 262 263 264 265 266 266 264 265 269 272 273 275 276 277 278 277 277 277 279 280 282 282 283 282 281 280 279 278 277 276
269 273 279 285 290 294 297 301 306 313 317 316 313 307 301 294 286 276 268 261 257 255 254 254 253 251 250 250 250 252 255 257 258 258 260 263 266 268 268 267 267 269 271 272 274 275 275 275 275 277 280 282 283 284 285 285 285 284 282 280 280 279 278
266 271 275 280 284 288 291 296 304 313 320 323 324 320 313 305 295 282 272 264 258 256 256 256 256 254 253 252 253 254 254 255 256 256 257 259 261 262 263 265 266 269 271 273 275 276 276 276 278 281 282 283 284 285 286 285 284 284 283 283 282 282 282
265 270 274 277 280 284 287 292 300 311 319 325 330 330 323 314 303 291 280 270 260 258 259 256 252 252 250 249 252 256 256 257 259 259 259 260 261 261 264 267 269 270 272 274 275 276 275 276 279 282 282 281 282 284 285 285 284 283 282 282 282 282 282
263 268 272 275 277 281 285 290 296 306 314 322 331 335 329 318 309 300 292 281 267 260 259 252 244 247 250 249 252 255 255 256 258 261 262 262 263 264 267 270 272 272 273 274 273 273 275 276 278 281 283 282 282 283 285 285 285 284 284 284 284 284 284
263 267 271 274 276 278 282 286 292 300 307 317 329 336 332 320 310 304 300 294 282 268 259 249 243 248 254 253 253 255 256 258 259 261 263 264 265 268 270 273 274 274 273 272 271 272 275 276 277 279 283 284 285 285 285 285 286 287 287 288 288 288 287
264 267 270 273 275 277 279 282 286 292 299 309 322 331 332 325 313 306 303 299 293 280 263 251 249 254 259 259 257 258 261 264 265 265 266 267 270 273 275 277 277 275 273 271 272 274 276 276 277 279 281 283 283 284 285 286 288 289 289 290 291 291 291
265 265 267 270 273 275 277 279 281 284 290 300 312 321 327 328 323 311 303 297 292 284 270 260 259 263 267 268 265 262 264 267 269 270 271 273 275 277 278 278 276 275 274 274 275 276 276 276 277 277 278 279 280 282 284 287 288 289 291 292 293 293 293
264 265 266 267 270 273 276 277 278 280 283 290 302 309 314 321 327 323 312 300 291 283 275 270 270 272 274 273 269 267 267 268 269 271 272 273 275 277 278 278 277 277 278 279 279 278 277 276 276 276 277 279 280 283 285 287 288 290 293 294 294 294 294
263 264 265 266 268 270 273 274 276 278 279 282 290 297 301 308 317 324 325 316 301 289 280 275 275 275 274 271 268 267 268 269 269 271 272 272 273 275 276 278 278 279 280 280 280 280 280 280 279 278 279 280 282 284 287 287 288 291 294 295 295 294 293
263 263 264 264 265 267 269 272 274 276 278 279 282 286 290 295 303 311 319 323 317 304 291 283 280 277 275 273 271 267 267 270 271 272 273 274 273 273 273 275 277 279 280 281 281 282 281 281 280 281 281 282 283 285 286 286 288 291 294 295 295 294 293
260 261 262 262 263 265 267 269 271 274 276 277 278 278 281 287 293 298 306 313 317 316 309 301 293 287 283 283 281 275 273 276 277 276 276 276 275 274 274 275 277 279 281 282 282 281 280 280 281 282 281 281 282 284 284 284 287 291 294 295 295 294 293
256 258 259 260 263 264 265 266 268 271 274 275 275 274 276 280 285 290 295 301 306 310 314 314 312 306 298 292 288 283 282 283 284 283 281 278 276 275 275 276 278 279 280 281 281 281 281 281 282 281 280 280 282 283 282 283 287 292 294 295 295 295 294
257 258 259 261 264 265 264 265 266 268 271 274 273 272 272 275 279 283 287 291 296 299 303 307 312 315 315 309 301 293 289 288 288 287 286 283 280 277 275 276 277 278 279 280 281 281 281 282 282 280 279 280 281 281 282 284 288 293 295 295 296 296 296
261 261 262 262 264 265 264 264 265 266 269 271 271 271 270 271 273 277 281 285 288 291 293 297 301 305 309 313 313 309 304 300 297 292 288 286 284 282 279 278 279 279 279 280 280 280 280 281 281 280 280 280 281 281 282 285 289 293 296 296 296 297 297
267 266 265 263 263 264 265 264 264 266 267 267 269 270 269 268 269 272 276 279 281 284 286 290 294 298 301 304 307 310 312 311 309 304 298 292 288 285 283 282 281 280 279 279 279 279 278 279 280 281 281 282 281 281 283 286 289 294 296 296 296 297 297
267 268 267 266 265 263 263 264 263 263 264 265 267 269 269 268 266 267 270 273 276 278 281 284 288 292 296 299 303 306 309 310 310 310 309 303 295 288 285 282 281 279 277 277 277 277 278 280 281 283 284 283 282 283 284 285 289 293 295 295 296 296 296
264 266 267 268 267 263 261 262 262 261 262 263 265 267 268 268 266 265 266 268 271 274 278 281 284 287 290 294 299 302 305 308 309 310 311 310 305 297 289 284 281 278 276 276 277 278 280 282 284 285 285 283 282 283 283 284 288 292 293 293 295 295 295
269 269 268 269 268 264 260 261 261 260 261 261 263 265 266 267 266 264 264 266 268 272 275 278 280 282 285 289 294 298 302 304 307 310 311 312 310 306 297 287 281 278 278 279 279 279 280 282 284 285 283 282 282 282 282 284 287 290 291 293 294 294 293
274 273 272 270 268 264 261 261 261 260 260 260 261 263 264 266 266 265 264 264 266 269 271 274 275 277 280 284 289 294 298 302 306 309 310 311 311 308 299 289 283 280 280 280 280 280 281 283 284 284 283 283 283 282 281 283 286 288 291 293 294 293 292
Height
5795 5796 5797 5797 5798 5799 5799 5799 5800 5800 5801 5802 5802 5803 5804 5805 5805 5806 5806 5806 5806 5806 5808 5809 5810 5811 5813 5814 5814 5815 5816 5817 5818 5818 5819 5819 5820 5821 5821 5822 5822 5823 5823 5824 5824 5824 5825 5825 5826 5826 5826 5827 5827 5828 5828 5829 5829 5829 5830 5829 5829 5830 5830
5795 5795 5796 5797 5797 5798 5798 5799 5799 5799 5800 5800 5801 5802 5803 5803 5804 5805 5805 5805 5805 5805 5806 5807 5808 5809 5811 5812 5812 5813 5814 5815 5816 5817 5817 5818 5818 5819 5819 5820 5820 5821 5821 5822 5823 5823 5824 5824 5824 5825 5825 5825 5825 5826 5826 5826 5826 5827 5827 5827 5827 5828 5828
5794 5794 5795 5796 5797 5797 5798 5798 5799 5799 5799 5799 5800 5800 5801 5801 5802 5803 5803 5804 5804 5804 5805 5806 5807 5808 5809 5810 5811 5812 5813 5813 5814 5815 5815 5816 5816 5817 5818 5818 5818 5819 5820 5820 5821 5822 5822 5822 5822 5823 5824 5823 5824 5824 5824 5824 5824 5824 5824 5824 5824 5825 5825
5793 5793 5794 5795 5796 5796 5797 5798 5798 5799 5799 5799 5799 5799 5800 5800 5801 5801 5802 5802 5803 5804 5804 5805 5806 5807 5808 5809 5810 5811 5812 5812 5813 5813 5814 5814 5815 5815 5816 5816 5817 5818 5818 5819 5819 5819 5820 5820 5820 5821 5822 5822 5822 5823 5823 5822 5822 5822 5822 5822 5822 5822 5822
5792 5793 5793 5794 5795 5795 5796 5797 5797 5798 5798 5798 5799 5799 5800 5800 5801 5801 5802 5802 5802 5803 5804 5805 5806 5807 5808 5809 5809 5810 5811 5811 5812 5812 5812 5813 5813 5813 5814 5815 5816 5816 5817 5817 5817 5818 5818 5818 5818 5819 5820 5820 5820 5821 5821 5820 5820 5820 5821 5820 5820 5820 5820
5792 5792 5793 5793 5794 5794 5795 5796 5796 5796 5796 5797 5797 5799 5800 5800 5801 5802 5802 5803 5803 5803 5804 5804 5805 5806 5807 5808 5808 5809 5810 5810 5811 5811 5811 5811 5811 5812 5812 5813 5814 5815 5816 5816 5816 5816 5816 5817 5817 5817 5818 5818 5818 5819 5819 5819 5818 5818 5818 5818 5818 5817 5818
5791 5791 5792 5792 5793 5793 5794 5794 5794 5794 5795 5795 5796 5798 5799 5799 5800 5801 5801 5802 5802 5803 5803 5804 5805 5805 5805 5806 5807 5808 5808 5809 5809 5810 5810 5810 5810 5811 5811 5812 5813 5814 5814 5815 5815 5815 5815 5815 5815 5816 5816 5816 5816 5817 5817 5817 5817 5816 5816 5816 5816 5816 5816
5790 5790 5790 5791 5791 5791 5792 5792 5792 5792 5793 5793 5795 5796 5797 5797 5798 5799 5799 5800 5801 5801 5802 5803 5803 5804 5804 5804 5805 5806 5806 5807 5807 5807 5808 5809 5809 5810 5810 5811 5812 5812 5813 5813 5813 5814 5814 5814 5814 5814 5814 5814 5814 5814 5815 5815 5815 5814 5814 5815 5815 5815 5814
5789 5789 5789 5789 5789 5789 5789 5789 5789 5790 5791 5793 5794 5795 5795 5796 5797 5797 5798 5798 5799 5800 5800 5801 5801 5802 5802 5803 5803 5803 5804 5804 5805 5805 5806 5807 5808 5809 5809 5810 5810 5811 5811 5812 5812 5812 5812 5812 5812 5812 5812 5812 5812 5812 5813 5813 5813 5813 5813 5813 5814 5813 5813
5788 5788 5788 5788 5788 5788 5787 5787 5788 5791 5793 5794 5794 5794 5794 5795 5795 5796 5796 5797 5798 5798 5798 5799 5799 5799 5800 5800 5800 5801 5801 5802 5802 5803 5804 5805 5806 5807 5807 5808 5808 5809 5809 5809 5809 5809 5810 5810 5810 5809 5810 5811 5811 5811 5811 5811 5811 5812 5812 5812 5812 5812 5811
5786 5786 5786 5786 5785 5785 5786 5788 5790 5792 5792 5792 5792 5792 5793 5793 5794 5794 5794 5795 5795 5796 5796 5796 5797 5797 5797 5797 5798 5798 5799 5799 5800 5800 5801 5802 5803 5803 5804 5804 5805 5805 5805 5806 5806 5806 5807 5807 5806 5806 5807 5808 5809 5809 5809 5809 5808 5808 5809 5810 5810 5810 5809
5785 5785 5784 5784 5783 5784 5786 5789 5790 5789 5788 5789 5790 5790 5791 5791 5791 5791 5792 5792 5793 5793 5793 5794 5794 5795 5795 5795 5795 5796 5796 5796 5796 5797 5798 5799 5799 5799 5800 5800 5800 5801 5801 5801 5802 5802 5802 5802 5802 5802 5803 5804 5805 5805 5806 5806 5805 5804 5805 5806 5806 5806 5806
5783 5783 5782 5781 5781 5784 5786 5788 5787 5786 5786 5787 5787 5788 5788 5788 5788 5789 5789 5790 5791 5791 5791 5791 5792 5792 5792 5793 5793 5793 5793 5794 5794 5794 5795 5795 5795 5795 5796 5796 5796 5797 5797 5798 5798 5798 5798 5798 5798 5798 5799 5800 5800 5801 5801 5802 5802 5801 5800 5800 5801 5801 5802
5782 5781 5780 5779 5781 5785 5785 5784 5784 5784 5784 5784 5784 5784 5784 5785 5785 5786 5787 5787 5788 5788 5788 5789 5789 5789 5790 5790 5790 5790 5791 5791 5791 5791 5792 5792 5792 5792 5792 5792 5792 5793 5794 5794 5794 5794 5794 5795 5795 5795 5795 5796 5796 5796 5797 5797 5798 5798 5796 5796 5796 5796 5797
5780 5779 5777 5777 5781 5784 5783 5782 5781 5781 5781 5782 5782 5781 5781 5782 5782 5783 5783 5784 5784 5785 5785 5785 5786 5786 5787 5787 5787 5787 5788 5788 5789 5789 5790 5789 5789 5789 5789 5789 5789 5789 5790 5790 5790 5791 5791 5791 5792 5791 5792 5792 5792 5792 5792 5792 5793 5793 5793 5792 5791 5791 5791
5779 5778 5776 5776 5780 5782 5781 5780 5780 5779 5779 5779 5779 5779 5779 5779 5779 5780 5780 5780 5781 5781 5781 5781 5782 5782 5783 5783 5784 5784 5785 5786 5787 5787 5786 5786 5786 5786 5786 5787 5786 5786 5786 5787 5787 5788 5788 5788 5788 5788 5788 5788 5788 5788 5788 5788 5788 5788 5788 5788 5787 5786 5786
5778 5777 5775 5775 5778 5779 5778 5778 5778 5778 5777 5776 5775 5775 5775 5776 5776 5777 5777 5777 5777 5777 5777 5777 5778 5778 5779 5779 5779 5780 5781 5783 5784 5784 5784 5783 5782 5782 5783 5783 5782 5782 5783 5783 5784 5784 5785 5785 5785 5785 5784 5784 5783 5783 5783 5783 5783 5783 5783 5784 5783 5782 5781
5776 5775 5774 5774 5776 5777 5777 5776 5776 5776 5775 5773 5772 5772 5771 5772 5772 5773 5774 5774 5774 5774 5774 5774 5774 5775 5774 5774 5775 5776 5778 5780 5781 5782 5782 5781 5781 5780 5780 5781 5780 5780 5780 5780 5780 5781 5781 5781 5781 5780 5780 5779 5779 5779 5779 5778 5778 5778 5778 5778 5778 5777 5776
5774 5773 5773 5773 5774 5775 5775 5774 5774 5774 5773 5771 5770 5768 5768 5768 5768 5769 5770 5770 5771 5771 5770 5770 5771 5772 5771 5771 5772 5774 5775 5776 5777 5777 5778 5778 5778 5778 5778 5778 5777 5777 5777 5777 5778 5778 5778 5778 5777 5776 5776 5775 5775 5775 5775 5774 5774 5773 5773 5773 5773 5772 5772
5772 5772 5771 5771 5772 5773 5773 5773 5772 5772 5771 5770 5768 5766 5765 5764 5765 5766 5766 5767 5767 5767 5767 5768 5768 5768 5768 5769 5770 5771 5772 5772 5772 5773 5774 5774 5774 5773 5773 5773 5774 5774 5774 5774 5775 5775 5775 5773 5773 5773 5772 5772 5771 5771 5771 5770 5769 5769 5768 5768 5768 5767 5767
5770 5769 5769 5769 5770 5770 5770 5771 5770 5770 5769 5768 5767 5765 5763 5762 5762 5763 5763 5763 5764 5764 5765 5766 5766 5765 5765 5766 5767 5768 5769 5768 5768 5769 5770 5770 5770 5770 5770 5770 5770 5771 5771 5771 5771 5771 5771 5770 5770 5769 5769 5768 5768 5767 5767 5766 5765 5764 5764 5763 5763 5762 5762
5767 5767 5766 5767 5767 5767 5767 5768 5768 5768 5767 5766 5765 5764 5762 5761 5760 5760 5760 5760 5761 5761 5761 5762 5763 5763 5763 5764 5764 5765 5765 5765 5765 5765 5765 5766 5766 5766 5766 5767 5767 5767 5767 5767 5767 5767 5766 5766 5766 5765 5765 5765 5764 5764 5763 5762 5761 5760 5760 5759 5758 5757 5757
5764 5764 5763 5764 5764 5765 5765 5765 5765 5765 5765 5764 5764 5762 5761 5760 5759 5758 5758 5758 5758 5758 5758 5759 5760 5760 5761 5761 5762 5762 5762 5761 5761 5761 5761 5761 5762 5762 5763 5763 5763 5764 5763 5763 5762 5762 5762 5763 5762 5761 5761 5761 5760 5759 5758 5758 5757 5757 5756 5755 5754 5753 5752
5760 5760 5760 5760 5761 5762 5762 5762 5762 5762 5761 5762 5762 5761 5760 5759 5758 5757 5757 5757 5757 5757 5757 5757 5757 5757 5758 5758 5758 5758 5758 5758 5758 5757 5758 5758 5758 5759 5760 5760 5760 5760 5759 5758 5758 5759 5759 5759 5758 5758 5757 5757 5756 5755 5754 5754 5753 5753 5752 5751 5750 5749 5748
5757 5757 5757 5757 5758 5758 5759 5759 5759 5759 5759 5759 5759 5759 5758 5757 5757 5756 5756 5755 5755 5755 5755 5755 5755 5755 5755 5755 5756 5755 5755 5756 5755 5755 5755 5755 5755 5756 5756 5756 5756 5755 5754 5754 5754 5755 5755 5755 5754 5754 5753 5753 5752 5751 5751 5750 5749 5749 5748 5747 5746 5745 5743
5753 5753 5754 5754 5754 5755 5755 5755 5756 5756 5756 5757 5757 5756 5756 5755 5755 5754 5754 5754 5753 5753 5753 5753 5753 5753 5753 5753 5753 5753 5753 5754 5754 5753 5752 5753 5752 5752 5752 5752 5751 5751 5750 5750 5751 5751 5751 5750 5750 5750 5749 5748 5747 5747 5747 5746 5745 5745 5744 5743 5742 5740 5739
5749 5750 5750 5751 5751 5752 5751 5751 5752 5753 5753 5754 5754 5754 5753 5753 5753 5753 5752 5752 5751 5751 5751 5751 5751 5751 5751 5751 5751 5751 5751 5751 5751 5750 5749 5749 5749 5749 5748 5748 5747 5747 5746 5746 5746 5746 5746 5745 5745 5745 5744 5743 5742 5742 5742 5741 5741 5741 5740 5739 5738 5736 5735
5745 5746 5747 5747 5748 5748 5747 5747 5747 5748 5749 5750 5751 5751 5751 5751 5751 5751 5750 5750 5749 5749 5749 5748 5749 5749 5749 5749 5749 5748 5747 5748 5748 5747 5746 5746 5745 5745 5745 5744 5743 5743 5742 5742 5742 5742 5741 5741 5741 5740 5739 5738 5738 5738 5738 5737 5736 5737 5736 5735 5733 5732 5730
5741 5742 5743 5744 5744 5744 5743 5743 5743 5744 5745 5746 5747 5747 5747 5748 5748 5748 5748 5748 5747 5747 5746 5746 5746 5746 5746 5746 5745 5744 5744 5744 5744 5744 5743 5743 5742 5741 5741 5740 5740 5739 5739 5738 5738 5737 5737 5737 5736 5736 5735 5734 5734 5734 5733 5732 5733 5733 5731 5730 5728 5727 5726
5737 5737 5738 5739 5740 5740 5739 5739 5739 5740 5741 5742 5743 5743 5744 5744 5745 5745 5745 5745 5744 5744 5744 5744 5744 5743 5743 5743 5743 5742 5741 5740 5740 5741 5740 5739 5738 5737 5737 5736 5736 5736 5735 5735 5734 5733 5732 5733 5732 5732 5731 5731 5731 5731 5729 5728 5728 5728 5727 5725 5724 5722 5721
5733 5733 5734 5735 5735 5735 5735 5735 5735 5735 5736 5737 5738 5739 5740 5740 5741 5741 5741 5741 5741 5741 5740 5741 5741 5741 5740 5740 5740 5739 5738 5738 5737 5737 5736 5735 5734 5734 5733 5733 5732 5732 5731 5730 5729 5728 5728 5728 5728 5727 5727 5727 5727 5727 5725 5724 5724 5723 5722 5721 5720 5718 5717
5728 5728 5729 5730 5730 5730 5730 5730 5730 5730 5731 5732 5733 5734 5736 5736 5737 5737 5737 5737 5738 5737 5737 5737 5737 5737 5737 5737 5737 5736 5736 5735 5734 5733 5732 5731 5730 5730 5730 5729 5729 5728 5727 5726 5725 5724 5723 5724 5724 5723 5723 5723 5723 5722 5721 5721 5720 5718 5717 5716 5715 5713 5712
5723 5723 5724 5724 5724 5725 5725 5725 5725 5726 5727 5727 5728 5729 5731 5732 5732 5733 5733 5733 5734 5733 5733 5733 5733 5733 5733 5733 5733 5733 5732 5731 5730 5729 5728 5727 5726 5726 5726 5725 5724 5723 5722 5721 5720 5719 5719 5720 5720 5719 5719 5718 5718 5718 5717 5716 5715 5714 5713 5712 5711 5709 5708
5717 5718 5718 5719 5719 5720 5721 5720 5720 5721 5721 5722 5723 5724 5726 5727 5728 5728 5729 5729 5730 5729 5729 5729 5729 5729 5729 5729 5729 5729 5728 5727 5726 5725 5724 5723 5723 5722 5722 5721 5719 5718 5717 5717 5716 5715 5715 5715 5715 5715 5715 5714 5713 5714 5714 5712 5711 5710 5709 5708 5707 5705 5704
5710 5711 5712 5713 5714 5715 5715 5715 5715 5715 5716 5717 5718 5719 5720 5722 5723 5724 5724 5725 5725 5725 5725 5725 5725 5724 5724 5724 5724 5724 5724 5723 5722 5722 5721 5720 5719 5718 5717 5716 5715 5714 5713 5712 5712 5711 5711 5711 5711 5711 5710 5709 5709 5710 5710 5708 5707 5707 5706 5704 5703 5701 5699
5702 5703 5704 5706 5707 5708 5709 5709 5710 5710 5710 5711 5713 5714 5715 5716 5717 5719 5720 5720 5721 5721 5721 5721 5721 5720 5720 5720 5720 5720 5720 5719 5719 5718 5717 5716 5715 5714 5712 5711 5710 5709 5708 5708 5708 5707 5707 5707 5707 5707 5706 5705 5705 5706 5705 5704 5704 5703 5702 5701 5699 5697 5695
5695 5696 5697 5698 5700 5701 5702 5704 5704 5705 5705 5706 5707 5709 5710 5711 5712 5713 5715 5715 5716 5716 5716 5717 5717 5716 5715 5715 5715 5715 5715 5715 5715 5714 5713 5712 5711 5709 5708 5706 5705 5704 5704 5704 5703 5703 5703 5703 5703 5702 5701 5701 5701 5701 5700 5700 5700 5700 5698 5696 5694 5693 5691